Temp
5 6 7 8 11 12 13 14 15 16 16 16 17 17 17 17 17 17 17 17 18 18 18 18 18 18 18 18 18 19 19 19 19 19 19 19 19 19 19 19 20 19 19
5 6 7 8 10 11 12 13 14 15 15 16 16 16 17 17 17 17 17 17 17 17 18 18 18 18 18 18 19 19 19 19 19 19 19 19 19 19 19 19 19 20 19
4 5 6 7 9 10 11 12 12 13 14 14 15 15 16 16 16 16 17 17 17 17 17 17 17 17 18 18 18 19 19 19 19 19 19 19 19 19 19 19 19 19 20
4 5 5 6 8 9 10 11 11 12 12 12 13 14 15 15 15 15 15 15 16 16 17 17 17 17 17 18 18 18 18 19 19 19 20 19 19 19 19 19 19 19 19
4 4 2 5 7 8 9 9 10 10 10 10 11 12 13 14 14 14 14 15 15 16 16 16 16 17 17 17 17 18 18 18 19 19 19 19 20 20 19 19 19 19 19
3 3 1 3 5 6 7 8 8 9 9 9 9 10 10 12 13 14 13 14 15 15 15 16 16 16 16 17 17 17 18 18 18 19 19 19 19 20 19 19 19 20 19
2 3 3 1 3 4 5 6 6 7 7 7 7 7 8 10 12 13 13 12 13 13 14 14 15 15 16 16 16 17 17 18 18 18 19 19 20 20 20 19 19 20 20
2 2 3 3 -0 2 3 4 5 5 5 5 5 6 9 9 10 11 12 11 12 13 13 14 14 14 16 16 16 17 17 17 18 18 18 19 19 19 19 19 19 19 20
2 2 3 3 4 5 1 2 2 3 3 5 7 10 11 11 11 11 11 12 12 14 13 13 14 15 16 16 16 17 17 17 17 18 18 19 19 19 19 19 19 19 19
2 2 3 4 4 4 4 2 2 2 6 9 9 10 10 11 11 11 12 11 11 13 14 13 13 14 15 15 16 16 17 17 17 17 17 18 19 19 19 19 19 19 19
2 2 2 3 4 4 4 5 6 6 7 8 9 9 10 10 10 10 10 11 12 12 12 13 13 13 14 15 15 16 16 16 16 17 17 18 18 19 19 19 19 19 18
0 1 1 2 3 4 4 4 5 5 6 6 7 8 8 8 8 9 9 10 11 11 12 12 12 12 13 13 14 14 14 14 15 16 17 17 18 18 18 18 18 18 18
-2 -0 0 1 2 3 4 4 4 4 5 5 6 6 6 7 7 7 8 8 9 10 10 11 11 12 11 12 12 12 12 12 14 15 16 16 17 18 18 18 18 18 18
-1 -1 -0 1 2 2 2 3 3 3 3 4 4 4 5 5 6 5 5 6 6 7 8 8 9 9 10 11 11 11 12 11 12 14 15 16 16 17 17 17 17 17 17
-2 -2 -1 -0 1 1 1 1 2 1 2 2 2 2 3 3 3 3 4 4 4 5 6 6 7 8 8 9 10 10 11 12 12 13 13 15 15 16 17 17 17 17 17
-2 -2 -1 -1 -0 0 0 0 0 0 0 1 1 1 1 1 2 2 2 2 2 3 3 4 5 6 7 8 9 9 10 11 12 12 12 12 14 15 15 16 17 17 16
-2 -2 -1 -1 -1 -0 -0 -0 -0 -0 0 1 0 1 1 1 1 1 1 1 1 2 2 4 4 5 6 7 8 9 9 11 12 13 13 12 12 14 15 15 15 16 16
-3 -3 -3 -2 -2 -1 -1 -2 -1 -1 -1 -1 -1 -1 -1 -1 -1 -0 -0 -0 -0 1 1 2 1 2 3 4 6 8 9 10 10 10 11 10 10 12 13 14 16 15 15
-3 -3 -3 -2 -2 -2 -2 -3 -3 -3 -3 -3 -3 -2 -2 -2 -2 -2 -2 -2 -1 -1 -0 0 0 -0 1 3 4 7 8 8 8 7 7 8 8 9 10 11 12 14 15
-4 -3 -3 -3 -3 -3 -3 -4 -4 -4 -4 -4 -4 -3 -3 -2 -2 -2 -2 -3 -3 -3 -3 -2 -2 -2 -4 -4 1 5 7 6 5 6 7 7 7 7 8 9 10 11 13
-4 -4 -4 -3 -3 -3 -3 -4 -4 -4 -4 -4 -4 -3 -2 -2 -2 -3 -3 -4 -4 -4 -5 -5 -5 -5 -5 -5 -4 -2 3 5 5 6 4 5 4 6 6 7 8 9 9
-4 -5 -4 -4 -4 -4 -3 -4 -4 -4 -4 -5 -4 -4 -3 -3 -3 -4 -4 -4 -4 -4 -5 -5 -5 -6 -7 -6 -6 -3 -2 0 3 3 3 3 3 3 5 6 7 7 8
-5 -5 -5 -5 -5 -5 -4 -4 -4 -4 -4 -4 -4 -4 -4 -4 -4 -4 -5 -4 -4 -5 -6 -6 -6 -7 -8 -7 -6 -6 -5 -3 -5 -1 -1 -0 0 2 2 3 5 5 7
-5 -5 -6 -6 -6 -6 -5 -4 -3 -4 -5 -6 -6 -6 -6 -5 -5 -5 -5 -5 -5 -5 -5 -6 -7 -7 -8 -8 -7 -7 -6 -6 -4 -3 -2 -2 -3 -2 -1 0 1 4 4
-5 -5 -6 -6 -6 -6 -5 -5 -4 -4 -6 -6 -6 -6 -5 -5 -5 -5 -5 -4 -4 -5 -5 -6 -6 -7 -8 -9 -9 -8 -7 -6 -5 -5 -4 -4 -4 -3 -2 -2 -1 1 3
-6 -6 -6 -6 -6 -6 -5 -5 -5 -5 -6 -6 -6 -5 -5 -5 -5 -5 -5 -5 -5 -5 -6 -6 -6 -7 -7 -8 -9 -9 -8 -7 -6 -6 -5 -5 -4 -3 -3 -2 -1 0 1
Height
882 879 875 871 871 867 862 859 857 854 853 851 849 848 846 845 844 843 842 840 839 838 837 838 837 836 834 831 831 832 830 830 829 829 829 830 831 830 831 830 830 831 832
884 880 877 873 873 870 866 862 860 856 854 853 852 850 848 847 847 845 842 842 842 841 840 840 837 836 834 835 834 834 832 832 832 831 831 831 832 832 831 832 833 832 833
883 880 877 876 874 871 867 864 861 859 857 855 853 852 850 848 847 846 844 844 844 843 842 840 840 838 837 835 836 835 834 835 833 833 832 832 832 833 832 833 833 833 834
882 879 877 877 875 871 868 865 862 860 857 856 855 853 852 851 849 848 847 845 843 842 843 843 841 839 838 838 838 837 835 836 836 833 834 834 833 834 834 834 834 834 834
882 879 877 878 876 872 869 867 864 862 859 857 855 854 854 853 851 849 847 846 845 844 844 842 841 840 841 841 840 837 838 838 837 835 835 835 834 834 834 835 834 835 835
883 879 877 878 876 874 871 868 866 864 861 860 857 855 854 853 852 851 849 848 846 845 843 843 841 842 842 841 839 839 839 839 836 836 836 835 835 836 836 835 836 835 835
883 880 877 878 876 875 873 870 867 865 864 861 858 856 854 852 852 851 851 851 849 848 846 845 843 842 842 842 841 840 839 838 836 836 836 836 835 835 836 837 836 836 836
885 881 879 877 875 875 873 871 869 867 864 862 859 857 854 853 852 851 851 850 849 848 847 846 845 844 842 841 840 839 838 838 838 837 837 837 836 834 836 836 836 837 836
886 883 881 879 875 872 873 873 871 868 865 862 860 858 857 855 854 852 851 850 849 849 848 847 846 844 843 842 841 840 840 840 838 837 837 836 836 837 836 836 836 837 837
886 884 883 880 878 876 875 873 870 868 866 864 862 860 859 858 855 854 852 852 851 850 848 847 845 845 844 843 841 841 840 839 838 838 837 836 837 837 837 837 837 836 836
886 885 885 882 880 878 877 875 871 870 868 866 864 862 861 859 857 857 856 853 853 850 849 848 846 844 843 843 842 841 839 838 838 837 837 837 837 837 837 837 837 837 836
889 888 886 884 881 879 877 876 873 872 869 868 866 864 862 862 860 858 856 854 853 852 850 848 847 844 843 842 841 840 839 838 838 838 837 837 837 837 837 836 836 836 836
891 889 886 885 883 881 879 878 876 874 872 870 868 867 864 864 861 859 858 856 854 852 850 848 846 845 844 843 842 841 840 838 838 838 838 837 837 837 836 836 835 835 834
891 890 888 887 885 883 882 879 878 876 874 871 870 868 866 865 863 860 860 858 855 854 852 850 849 847 846 845 843 842 841 839 838 837 837 836 835 835 834 835 834 833 833
890 890 889 888 887 886 883 882 880 878 876 874 873 872 870 866 865 864 862 860 857 856 854 852 850 847 845 844 844 842 840 838 837 837 835 834 834 835 834 834 834 833 832
891 890 890 889 888 886 885 883 882 881 879 877 875 874 871 869 867 866 864 862 860 859 857 854 849 847 846 844 842 841 839 837 835 834 833 833 833 832 832 833 832 832 831
892 891 891 890 888 887 886 884 883 882 880 878 877 876 873 872 870 868 867 864 861 859 858 854 851 849 846 844 841 838 836 835 833 831 831 831 830 829 829 829 830 830 828
891 891 890 888 888 887 886 885 885 884 882 880 879 878 875 874 872 871 868 866 864 862 859 854 850 847 845 843 839 836 834 833 831 829 828 828 828 827 826 826 826 826 825
888 888 888 888 888 887 887 887 887 886 884 882 881 879 877 875 873 870 868 867 866 864 861 857 854 851 847 843 838 835 833 832 830 830 829 828 827 825 823 822 821 820 821
887 888 888 888 888 888 888 888 888 887 885 884 881 878 876 874 872 870 869 868 866 864 860 857 855 853 850 846 840 835 831 831 830 830 830 829 827 825 821 820 818 817 816
885 886 887 887 887 887 887 887 887 886 885 883 880 877 876 874 873 872 872 870 867 864 862 859 855 852 850 845 837 832 831 830 830 831 829 829 826 823 821 820 817 815 813
882 884 884 885 886 886 885 884 884 883 883 882 880 878 877 877 876 875 874 872 869 867 865 862 859 855 854 851 848 843 837 831 830 830 830 828 826 823 821 819 817 814 813
880 882 884 885 886 886 885 883 882 882 882 882 881 880 880 880 879 878 876 874 871 869 867 866 864 862 860 858 858 860 856 855 844 831 832 830 828 824 820 817 814 813 811
878 880 883 884 885 885 885 884 882 881 882 883 883 883 882 881 880 878 877 875 873 871 870 869 868 867 865 863 861 863 866 865 858 842 831 831 830 824 821 817 815 810 809
876 880 882 883 884 884 884 883 882 883 884 885 885 884 883 881 880 878 877 875 873 872 872 871 870 869 868 867 866 864 863 861 859 858 842 837 825 825 821 818 814 810 806
875 878 880 882 882 882 882 882 883 884 885 886 885 884 883 881 880 879 878 876 875 874 873 872 871 870 868 868 867 866 865 864 860 859 851 844 839 823 821 815 813 810 807
Wind_Speed
20 20 24 28 26 26 26 25 23 18 19 21 20 20 18 18 19 18 18 19 18 18 17 16 15 15 15 16 14 13 14 14 14 13 13 13 13 11 10 11 12 12 11
17 14 20 27 24 24 25 24 23 23 21 21 20 21 20 21 20 19 19 19 18 17 16 16 16 16 16 14 13 11 11 11 11 12 11 10 11 11 9 9 9 10 9
15 12 16 23 23 23 24 25 25 25 24 23 21 19 22 21 22 22 23 20 18 18 16 16 15 15 15 15 13 12 11 9 8 8 9 8 8 8 8 7 7 7 7
14 11 16 20 21 22 24 25 25 25 25 25 23 22 21 20 19 19 22 22 22 20 18 17 16 15 15 14 13 12 11 10 8 7 6 7 7 5 5 6 5 4 5
12 12 17 18 20 22 23 24 25 25 25 24 24 22 23 21 21 23 22 23 21 23 20 19 18 16 14 13 13 12 11 10 8 7 5 8 9 3 4 5 4 1 3
12 14 15 17 18 21 21 22 23 25 25 25 24 24 23 22 17 16 18 18 17 21 21 20 19 17 15 14 14 13 12 11 10 8 6 7 9 3 2 4 5 3 4
14 15 15 17 17 19 20 22 23 24 23 25 24 24 23 20 17 15 16 20 13 16 15 20 21 17 15 15 14 13 13 12 11 10 8 7 8 4 3 4 6 4 3
15 17 17 17 16 18 22 22 22 23 24 25 24 23 22 23 21 18 14 20 16 16 14 13 14 15 11 13 15 14 13 13 12 11 10 8 7 5 3 4 6 6 2
16 18 18 18 20 21 19 20 21 23 24 24 23 22 21 20 21 22 21 17 18 14 14 15 14 12 13 12 11 13 13 12 13 14 12 10 7 6 5 5 5 6 6
18 20 20 19 18 21 20 21 21 23 25 25 23 24 21 19 22 22 21 22 20 15 13 13 14 12 12 12 11 12 12 11 12 14 13 11 10 8 9 7 8 7 7
18 20 19 20 20 20 21 22 23 24 24 24 24 24 22 23 22 23 24 23 20 17 16 16 16 14 13 13 12 11 11 13 15 14 14 12 10 7 8 9 9 10 10
18 19 19 20 21 20 22 21 22 24 24 25 25 24 25 25 25 24 24 24 23 22 20 18 20 19 16 18 18 16 15 15 14 15 13 13 13 11 10 9 10 11 12
14 16 19 19 20 20 21 22 23 25 25 26 26 26 26 25 26 26 26 26 26 26 26 24 24 23 22 21 21 20 19 17 16 14 13 13 13 14 13 12 12 13 14
12 15 16 16 18 19 19 21 22 24 24 26 27 27 27 28 28 30 30 30 30 29 28 28 27 26 23 21 21 21 20 19 18 17 14 12 15 15 17 18 19 19 17
10 12 14 14 15 17 18 19 21 22 23 24 25 26 27 28 29 29 30 30 31 31 31 29 29 29 28 26 23 23 22 22 19 19 19 13 12 15 16 17 19 19 21
7 8 10 12 12 14 15 17 19 20 21 22 24 25 26 27 28 28 29 30 30 30 31 30 31 30 29 29 28 27 25 23 22 21 21 20 16 15 17 19 20 21 19
5 6 7 9 10 10 13 15 17 18 19 21 22 23 24 25 26 27 29 30 31 31 31 30 31 30 30 30 31 30 28 27 24 21 20 21 22 18 17 19 20 21 23
3 4 6 8 8 8 10 12 14 15 17 19 20 21 22 23 23 24 26 28 28 29 31 32 35 35 32 35 34 31 30 25 25 22 19 20 21 22 24 22 24 24 25
3 2 3 5 6 7 7 10 12 15 16 18 19 20 21 22 24 25 27 28 28 29 30 30 30 31 31 36 34 31 26 22 22 20 22 19 20 19 21 27 28 28 28
5 2 2 3 5 5 6 8 10 13 17 17 20 21 22 23 24 26 27 28 29 31 33 33 31 30 25 35 27 28 20 21 12 20 26 24 27 27 24 25 25 29 30
7 4 2 2 4 5 6 7 6 11 15 19 21 22 22 23 23 25 26 27 29 31 32 33 34 31 25 39 20 19 16 14 8 39 22 32 28 34 30 28 28 27 30
10 7 4 2 3 4 5 6 6 7 13 17 19 20 21 21 21 22 24 25 26 28 30 32 34 30 22 33 17 10 6 8 12 17 29 30 40 26 32 35 36 35 33
14 9 6 5 3 4 6 7 8 8 10 13 17 18 19 19 19 21 22 23 24 26 28 27 29 28 21 20 21 13 4 4 24 10 22 35 29 39 35 41 33 33 38
16 12 9 6 4 4 6 8 11 11 9 11 13 14 16 17 19 20 21 22 22 23 24 24 24 23 22 18 9 16 6 8 4 7 21 25 37 32 41 31 36 41 36
17 14 10 8 6 5 5 7 9 9 11 9 9 11 13 15 17 18 20 20 21 21 21 21 21 21 18 14 13 15 13 14 8 9 9 27 37 30 27 40 36 35 33
17 16 13 10 7 5 4 5 6 6 7 6 8 9 11 13 15 17 18 19 19 19 19 19 18 18 17 15 12 10 10 7 15 12 12 20 20 34 36 27 37 29 33
Wind_Direction
341 353 10 6 5 9 15 27 37 40 36 37 43 44 41 45 44 43 44 42 42 40 39 37 39 43 43 45 49 52 54 59 62 66 71 69 60 57 65 68 68 71 70
335 356 16 15 10 13 18 27 36 42 44 41 39 39 43 43 42 42 41 40 41 41 38 33 33 33 37 40 45 45 52 56 56 59 62 63 60 55 61 62 63 68 70
349 2 18 10 12 17 21 26 33 37 43 44 44 40 36 39 38 37 37 39 37 36 35 34 31 32 30 31 32 36 37 33 45 54 44 47 50 51 47 44 49 55 77
352 9 26 7 15 20 23 27 31 34 35 37 42 46 42 41 39 39 35 35 35 32 31 30 30 28 26 24 23 27 25 19 17 29 37 40 25 41 41 32 51 63 65
5 16 28 13 18 24 27 29 31 34 34 33 34 40 40 40 39 35 34 33 35 34 30 26 25 25 22 16 14 19 14 9 8 12 16 12 10 15 36 19 18 117 155
22 22 32 19 24 27 31 33 34 35 35 33 33 34 35 37 37 30 29 32 36 26 26 28 25 19 19 18 13 4 2 359 2 2 355 2 11 16 33 0 352 10 163
33 36 34 27 30 33 33 36 36 36 36 36 35 35 35 35 30 33 25 28 35 23 26 24 19 23 18 12 13 7 358 354 354 351 347 339 356 348 355 332 346 347 175
46 45 45 44 36 37 36 38 39 39 37 37 38 38 39 38 38 36 27 26 23 19 16 14 9 12 19 13 9 4 0 354 350 345 341 337 342 351 320 315 324 316 255
56 54 54 55 54 54 45 41 41 41 40 43 44 47 43 43 42 36 32 24 21 13 6 15 14 9 12 7 5 6 2 357 357 349 340 337 327 323 319 298 305 296 264
56 54 54 56 58 60 52 50 49 48 51 54 52 49 45 40 41 36 34 32 29 21 6 7 9 10 12 3 358 0 10 6 0 355 347 337 332 309 318 312 298 297 281
55 52 52 54 57 60 55 57 56 54 53 52 50 49 45 42 42 38 38 35 29 27 19 9 9 2 357 0 359 356 358 4 358 352 349 340 329 323 329 325 318 305 288
50 50 50 52 54 57 57 55 55 52 50 48 47 46 44 41 41 38 36 34 31 28 23 18 16 11 353 353 354 353 355 351 350 352 352 340 332 322 319 318 320 315 304
53 53 50 52 53 55 55 54 53 51 50 48 47 45 43 41 38 35 31 28 26 24 21 17 14 11 8 0 349 347 344 341 338 337 339 341 324 318 318 320 324 322 315
60 55 52 54 56 56 56 54 52 51 48 47 44 43 40 39 38 36 33 30 27 23 20 17 14 11 8 3 357 348 340 336 332 326 323 330 332 316 319 318 323 324 322
66 59 55 54 58 58 58 58 55 54 51 49 46 43 41 40 38 35 33 31 28 24 21 17 13 8 5 3 1 352 346 338 327 325 316 312 318 318 312 310 312 316 318
73 67 62 56 58 58 59 59 56 57 54 52 49 45 43 40 38 34 32 30 28 24 20 18 15 11 6 0 357 355 351 341 335 320 314 309 303 301 304 305 304 306 314
101 77 71 62 58 64 61 60 56 55 54 53 51 48 45 41 38 35 31 29 25 22 19 17 14 11 7 2 358 354 352 348 338 332 321 311 306 296 297 302 302 304 307
127 93 66 59 57 68 69 67 63 58 58 56 54 51 49 48 44 41 37 33 28 24 19 17 14 11 8 4 358 355 352 349 350 342 332 327 320 309 302 300 293 299 302
149 94 61 54 57 69 86 84 73 62 62 59 56 52 49 48 43 40 37 33 29 27 24 21 19 16 9 4 358 354 354 359 357 16 8 0 348 328 316 305 299 292 291
185 150 92 70 67 85 126 111 91 72 64 60 56 50 46 43 40 36 35 32 28 25 22 19 18 20 15 5 359 356 358 8 22 7 1 352 353 348 350 344 321 307 297
197 193 171 106 75 92 140 167 125 74 63 58 55 50 46 42 39 35 34 30 29 27 24 20 14 13 16 12 5 350 8 14 354 350 358 350 347 345 342 341 346 339 327
203 200 188 159 111 94 102 114 110 102 66 58 55 52 48 44 42 38 34 32 29 27 25 22 20 14 12 20 7 348 354 349 331 8 345 345 349 347 340 334 330 331 332
202 201 197 188 157 112 96 102 112 98 76 64 56 54 49 46 45 40 36 33 31 28 26 25 21 22 6 10 49 38 353 349 333 331 345 339 344 333 339 334 337 329 327
201 200 197 196 179 130 101 94 90 93 87 65 61 57 52 48 45 41 36 33 30 28 25 24 21 22 16 10 20 14 15 298 326 320 329 333 331 337 331 345 324 331 334
200 201 199 194 185 156 118 93 82 82 81 75 67 60 55 49 44 40 36 31 28 25 22 18 17 17 18 13 6 355 344 326 315 315 312 329 327 325 335 323 332 328 338
199 201 201 196 191 175 144 111 93 79 77 70 62 52 48 45 41 37 34 31 26 21 16 12 9 9 8 4 359 344 340 335 320 315 310 316 312 318 321 329 326 333 323